| time (UTC) | temp F | wind direction | speed knots | gust knots | rain 1hr in | rain 24hr in | rain mn in | humidity % | barometer mb |
| 20260502180544 | 67 | 360 | 15.6 | 0.0 | 0.00 | 0.00 | 0.00 | 34 | 1006.1 |
| 20260502164039 | 65 | 360 | 11.3 | 0.0 | 0.00 | 0.00 | 0.00 | 38 | 1005.8 |
| 20260502163539 | 65 | 360 | 11.3 | 0.0 | 0.00 | 0.00 | 0.00 | 36 | 1005.8 |
| 20260502163039 | 66 | 360 | 12.2 | 0.0 | 0.00 | 0.00 | 0.00 | 37 | 1005.8 |
| 20260502162538 | 65 | 360 | 13.0 | 0.0 | 0.00 | 0.00 | 0.00 | 36 | 1005.9 |
| 20260502162038 | 65 | 360 | 12.2 | 0.0 | 0.00 | 0.00 | 0.00 | 38 | 1005.9 |
| 20260502161538 | 64 | 360 | 12.2 | 0.0 | 0.00 | 0.00 | 0.00 | 39 | 1005.9 |
| 20260502160537 | 63 | 360 | 12.2 | 0.0 | 0.00 | 0.00 | 0.00 | 40 | 1005.7 |
| 20260502152032 | 61 | 360 | 7.0 | 0.0 | 0.00 | 0.00 | 0.00 | 46 | 1005.6 |
| 20260502151530 | 60 | 360 | 5.2 | 0.0 | 0.00 | 0.00 | 0.00 | 46 | 1005.7 |
| 20260502150531 | 60 | 360 | 6.1 | 0.0 | 0.00 | 0.00 | 0.00 | 46 | 1005.5 |
| 20260502130515 | 51 | 360 | 0.9 | 0.0 | 0.00 | 0.00 | 0.00 | 58 | 1005.5 |
| 20260502123515 | 48 | 360 | 0.9 | 0.0 | 0.00 | 0.00 | 0.00 | 58 | 1005.4 |
| 20260502123013 | 49 | 360 | 0.9 | 0.0 | 0.00 | 0.00 | 0.00 | 57 | 1005.4 |
| 20260502122513 | 49 | 360 | 0.9 | 0.0 | 0.00 | 0.00 | 0.00 | 57 | 1005.2 |
| 20260502122019 | 49 | 360 | 1.7 | 0.0 | 0.00 | 0.00 | 0.00 | 57 | 1005.2 |
| 20260502121515 | 48 | 360 | 1.7 | 0.0 | 0.00 | 0.00 | 0.00 | 57 | 1005.2 |
| 20260502120515 | 48 | 360 | 0.9 | 0.0 | 0.00 | 0.00 | 0.00 | 56 | 1005.2 |
| 20260502115515 | 48 | 360 | 0.9 | 0.0 | 0.00 | 0.00 | 0.00 | 55 | 1005.1 |
| 20260502115012 | 48 | 360 | 1.7 | 0.0 | 0.00 | 0.00 | 0.00 | 55 | 1005.1 |
| 20260502114512 | 48 | 211 | 0.9 | 0.0 | 0.00 | 0.00 | 0.00 | 55 | 1005.0 |
| 20260502114016 | 48 | 360 | 0.0 | 0.0 | 0.00 | 0.00 | 0.00 | 54 | 1004.9 |
| 20260502113512 | 48 | 360 | 0.0 | 0.0 | 0.00 | 0.00 | 0.00 | 54 | 1004.9 |
| 20260502113010 | 48 | 360 | 0.0 | 0.0 | 0.00 | 0.00 | 0.00 | 53 | 1004.8 |
| 20260502112511 | 49 | 360 | 0.9 | 0.0 | 0.00 | 0.00 | 0.00 | 53 | 1004.9 |
| 20260502112012 | 49 | 360 | 0.9 | 0.0 | 0.00 | 0.00 | 0.00 | 52 | 1004.7 |
| 20260502111510 | 49 | 360 | 1.7 | 0.0 | 0.00 | 0.00 | 0.00 | 52 | 1004.8 |
| 20260502110511 | 49 | 360 | 3.5 | 0.0 | 0.00 | 0.00 | 0.00 | 52 | 1004.6 |
| 20260502110010 | 49 | 360 | 4.3 | 0.0 | 0.00 | 0.00 | 0.00 | 52 | 1004.5 |
| 20260502105511 | 49 | 360 | 4.3 | 0.0 | 0.00 | 0.00 | 0.00 | 51 | 1004.6 |
| 20260502105010 | 50 | 360 | 4.3 | 0.0 | 0.00 | 0.00 | 0.00 | 50 | 1004.6 |
| 20260502104511 | 51 | 360 | 4.3 | 0.0 | 0.00 | 0.00 | 0.00 | 49 | 1004.9 |
| 20260502104009 | 51 | 360 | 6.1 | 0.0 | 0.00 | 0.00 | 0.00 | 48 | 1004.7 |
| 20260502103510 | 51 | 360 | 7.0 | 0.0 | 0.00 | 0.00 | 0.00 | 47 | 1004.6 |
| 20260502103013 | 51 | 360 | 6.1 | 0.0 | 0.00 | 0.00 | 0.00 | 48 | 1004.6 |
| 20260502102513 | 51 | 360 | 5.2 | 0.0 | 0.00 | 0.00 | 0.00 | 47 | 1004.7 |
| 20260502102008 | 51 | 360 | 4.3 | 0.0 | 0.00 | 0.00 | 0.00 | 47 | 1004.8 |
| 20260502101507 | 51 | 360 | 5.2 | 0.0 | 0.00 | 0.00 | 0.00 | 46 | 1005.0 |
| 20260502100508 | 51 | 360 | 6.1 | 0.0 | 0.00 | 0.00 | 0.00 | 45 | 1005.1 |
| 20260502091504 | 49 | 360 | 2.6 | 0.0 | 0.00 | 0.00 | 0.00 | 44 | 1004.7 |
| 20260502090502 | 51 | 360 | 2.6 | 0.0 | 0.00 | 0.00 | 0.00 | 43 | 1004.7 |
| 20260502071152 | 52 | 360 | 7.8 | 0.0 | 0.00 | 0.00 | 0.00 | 37 | 1005.7 |
| 20260502070552 | 52 | 360 | 7.8 | 0.0 | 0.00 | 0.00 | 0.00 | 37 | 1005.7 |
| 20260502070111 | 52 | 360 | 7.8 | 0.0 | 0.00 | 0.00 | 0.00 | 37 | 1005.7 |
| 20260502065550 | 52 | 360 | 7.8 | 0.0 | 0.00 | 0.00 | 0.00 | 38 | 1005.8 |
| 20260502065051 | 51 | 360 | 7.0 | 0.0 | 0.00 | 0.00 | 0.00 | 38 | 1005.8 |
| 20260502064550 | 51 | 360 | 7.0 | 0.0 | 0.00 | 0.00 | 0.00 | 38 | 1005.9 |
| 20260502064047 | 51 | 360 | 7.0 | 0.0 | 0.00 | 0.00 | 0.00 | 38 | 1005.9 |
| 20260502063546 | 51 | 360 | 7.0 | 0.0 | 0.00 | 0.00 | 0.00 | 38 | 1006.0 |
| 20260502063044 | 50 | 360 | 5.2 | 0.0 | 0.00 | 0.00 | 0.00 | 39 | 1006.0 |
| 20260502062542 | 49 | 360 | 3.5 | 0.0 | 0.00 | 0.00 | 0.00 | 40 | 1006.1 |
| 20260502062043 | 49 | 360 | 4.3 | 0.0 | 0.00 | 0.00 | 0.00 | 40 | 1006.1 |
| 20260502061543 | 49 | 360 | 4.3 | 0.0 | 0.00 | 0.00 | 0.00 | 40 | 1006.2 |
| 20260502061141 | 49 | 360 | 4.3 | 0.0 | 0.00 | 0.00 | 0.00 | 40 | 1006.3 |
| 20260502060542 | 49 | 360 | 5.2 | 0.0 | 0.00 | 0.00 | 0.00 | 39 | 1006.3 |
| 20260502060044 | 49 | 360 | 5.2 | 0.0 | 0.00 | 0.00 | 0.00 | 39 | 1006.4 |
| 20260502055544 | 49 | 360 | 5.2 | 0.0 | 0.00 | 0.00 | 0.00 | 38 | 1006.4 |
| 20260502055043 | 50 | 360 | 5.2 | 0.0 | 0.00 | 0.00 | 0.00 | 37 | 1006.5 |
| 20260502054557 | 51 | 360 | 5.2 | 0.0 | 0.00 | 0.00 | 0.00 | 37 | 1006.5 |
| 20260502054041 | 52 | 360 | 6.1 | 0.0 | 0.00 | 0.00 | 0.00 | 35 | 1006.6 |
| 20260502053539 | 52 | 360 | 7.0 | 0.0 | 0.00 | 0.00 | 0.00 | 35 | 1006.5 |
| 20260502053042 | 52 | 360 | 6.1 | 0.0 | 0.00 | 0.00 | 0.00 | 35 | 1006.6 |
| 20260502052538 | 53 | 360 | 7.0 | 0.0 | 0.00 | 0.00 | 0.00 | 35 | 1006.7 |
| 20260502052039 | 53 | 360 | 6.1 | 0.0 | 0.00 | 0.00 | 0.00 | 35 | 1006.7 |
| 20260502051539 | 52 | 213 | 6.1 | 0.0 | 0.00 | 0.00 | 0.00 | 35 | 1006.8 |
| 20260502051136 | 53 | 360 | 6.1 | 0.0 | 0.00 | 0.00 | 0.00 | 35 | 1006.9 |
| 20260502050536 | 53 | 360 | 6.1 | 0.0 | 0.00 | 0.00 | 0.00 | 35 | 1006.9 |
| 20260502050036 | 53 | 360 | 6.1 | 0.0 | 0.00 | 0.00 | 0.00 | 35 | 1006.9 |
| 20260502045536 | 53 | 360 | 6.1 | 0.0 | 0.00 | 0.00 | 0.00 | 35 | 1006.9 |
| 20260502045036 | 53 | 360 | 7.0 | 0.0 | 0.00 | 0.00 | 0.00 | 35 | 1007.0 |
| 20260502044535 | 53 | 360 | 7.0 | 0.0 | 0.00 | 0.00 | 0.00 | 34 | 1007.0 |
| 20260502044034 | 53 | 360 | 7.0 | 0.0 | 0.00 | 0.00 | 0.00 | 35 | 1007.0 |
| 20260502043534 | 53 | 360 | 6.1 | 0.0 | 0.00 | 0.00 | 0.00 | 35 | 1007.2 |
| 20260502043044 | 52 | 360 | 5.2 | 0.0 | 0.00 | 0.00 | 0.00 | 36 | 1007.2 |
| 20260502042533 | 50 | 360 | 3.5 | 0.0 | 0.00 | 0.00 | 0.00 | 38 | 1007.3 |
| 20260502042033 | 48 | 360 | 1.7 | 0.0 | 0.00 | 0.00 | 0.00 | 40 | 1007.3 |
| 20260502041553 | 48 | 360 | 2.6 | 0.0 | 0.00 | 0.00 | 0.00 | 40 | 1007.4 |
| 20260502041131 | 48 | 360 | 2.6 | 0.0 | 0.00 | 0.00 | 0.00 | 39 | 1007.4 |
| 20260502040532 | 49 | 360 | 2.6 | 0.0 | 0.00 | 0.00 | 0.00 | 39 | 1007.5 |
| 20260502040048 | 49 | 360 | 3.5 | 0.0 | 0.00 | 0.00 | 0.00 | 40 | 1007.5 |
| 20260502035532 | 48 | 360 | 3.5 | 0.0 | 0.00 | 0.00 | 0.00 | 40 | 1007.6 |
| 20260502035032 | 48 | 360 | 3.5 | 0.0 | 0.00 | 0.00 | 0.00 | 41 | 1007.7 |
| 20260502034532 | 47 | 360 | 3.5 | 0.0 | 0.00 | 0.00 | 0.00 | 41 | 1007.6 |
| 20260502034034 | 47 | 360 | 3.5 | 0.0 | 0.00 | 0.00 | 0.00 | 42 | 1007.7 |
| 20260502033530 | 46 | 360 | 2.6 | 0.0 | 0.00 | 0.00 | 0.00 | 42 | 1007.7 |
| 20260502033033 | 46 | 360 | 2.6 | 0.0 | 0.00 | 0.00 | 0.00 | 42 | 1007.8 |
| 20260502032529 | 46 | 360 | 2.6 | 0.0 | 0.00 | 0.00 | 0.00 | 42 | 1007.8 |
| 20260502032028 | 46 | 360 | 1.7 | 0.0 | 0.00 | 0.00 | 0.00 | 41 | 1008.0 |
| 20260502031528 | 46 | 360 | 2.6 | 0.0 | 0.00 | 0.00 | 0.00 | 41 | 1008.0 |
| 20260502031129 | 47 | 360 | 2.6 | 0.0 | 0.00 | 0.00 | 0.00 | 40 | 1008.1 |
| 20260502030529 | 47 | 360 | 2.6 | 0.0 | 0.00 | 0.00 | 0.00 | 40 | 1008.1 |
| 20260502030031 | 47 | 360 | 2.6 | 0.0 | 0.00 | 0.00 | 0.00 | 39 | 1008.1 |
| 20260502025528 | 48 | 360 | 2.6 | 0.0 | 0.00 | 0.00 | 0.00 | 39 | 1008.0 |
| 20260502025027 | 49 | 360 | 2.6 | 0.0 | 0.00 | 0.00 | 0.00 | 38 | 1008.0 |
| 20260502024527 | 49 | 360 | 3.5 | 0.0 | 0.00 | 0.00 | 0.00 | 37 | 1008.0 |
| 20260502024027 | 50 | 360 | 3.5 | 0.0 | 0.00 | 0.00 | 0.00 | 36 | 1008.1 |
| 20260502023527 | 51 | 360 | 3.5 | 0.0 | 0.00 | 0.00 | 0.00 | 35 | 1008.1 |
| 20260502023039 | 52 | 360 | 2.6 | 0.0 | 0.00 | 0.00 | 0.00 | 34 | 1008.0 |
| 20260502022526 | 53 | 360 | 2.6 | 0.0 | 0.00 | 0.00 | 0.00 | 33 | 1008.0 |
| 20260502022026 | 53 | 360 | 1.7 | 0.0 | 0.00 | 0.00 | 0.00 | 32 | 1008.0 |
| 20260502021526 | 55 | 360 | 1.7 | 0.0 | 0.00 | 0.00 | 0.00 | 29 | 1008.0 |
| 20260502021126 | 56 | 360 | 1.7 | 0.0 | 0.00 | 0.00 | 0.00 | 28 | 1008.0 |
| 20260502020525 | 58 | 360 | 1.7 | 0.0 | 0.00 | 0.00 | 0.00 | 28 | 1008.0 |
| 20260502020025 | 59 | 360 | 1.7 | 0.0 | 0.00 | 0.00 | 0.00 | 27 | 1008.1 |
| 20260502015526 | 60 | 360 | 1.7 | 0.0 | 0.00 | 0.00 | 0.00 | 26 | 1008.0 |
| 20260502015025 | 61 | 360 | 2.6 | 0.0 | 0.00 | 0.00 | 0.00 | 25 | 1008.1 |
| 20260502014530 | 62 | 360 | 3.5 | 0.0 | 0.00 | 0.00 | 0.00 | 26 | 1008.1 |
| 20260502014026 | 62 | 360 | 3.5 | 0.0 | 0.00 | 0.00 | 0.00 | 26 | 1008.1 |
| 20260502013523 | 63 | 360 | 3.5 | 0.0 | 0.00 | 0.00 | 0.00 | 26 | 1008.1 |
| 20260502013023 | 64 | 360 | 3.5 | 0.0 | 0.00 | 0.00 | 0.00 | 25 | 1008.1 |
| 20260502012523 | 65 | 360 | 3.5 | 0.0 | 0.00 | 0.00 | 0.00 | 24 | 1008.2 |
| 20260502012024 | 65 | 360 | 4.3 | 0.0 | 0.00 | 0.00 | 0.00 | 23 | 1008.2 |
| 20260502011523 | 66 | 360 | 4.3 | 0.0 | 0.00 | 0.00 | 0.00 | 23 | 1008.2 |
| 20260502011122 | 66 | 360 | 4.3 | 0.0 | 0.00 | 0.00 | 0.00 | 22 | 1008.3 |
| 20260502010522 | 66 | 360 | 4.3 | 0.0 | 0.00 | 0.00 | 0.00 | 22 | 1008.3 |
| 20260502010024 | 67 | 221 | 5.2 | 0.0 | 0.00 | 0.00 | 0.00 | 21 | 1008.5 |
| 20260502005522 | 67 | 360 | 5.2 | 0.0 | 0.00 | 0.00 | 0.00 | 21 | 1008.4 |
| 20260502005025 | 67 | 236 | 6.1 | 0.0 | 0.00 | 0.00 | 0.00 | 21 | 1008.4 |
| 20260502004523 | 67 | 360 | 5.2 | 0.0 | 0.00 | 0.00 | 0.00 | 20 | 1008.5 |
| 20260502004021 | 68 | 360 | 5.2 | 0.0 | 0.00 | 0.00 | 0.00 | 20 | 1008.6 |
| 20260502003520 | 68 | 360 | 4.3 | 0.0 | 0.00 | 0.00 | 0.00 | 20 | 1008.6 |
| 20260502003020 | 68 | 360 | 4.3 | 0.0 | 0.00 | 0.00 | 0.00 | 21 | 1008.7 |
| 20260502002521 | 68 | 360 | 5.2 | 0.0 | 0.00 | 0.00 | 0.00 | 20 | 1008.7 |
| 20260502002019 | 68 | 360 | 5.2 | 0.0 | 0.00 | 0.00 | 0.00 | 21 | 1008.7 |
| 20260502001518 | 68 | 360 | 5.2 | 0.0 | 0.00 | 0.00 | 0.00 | 20 | 1008.8 |
| 20260502001119 | 68 | 360 | 4.3 | 0.0 | 0.00 | 0.00 | 0.00 | 21 | 1008.8 |
| 20260502000519 | 68 | 360 | 5.2 | 0.0 | 0.00 | 0.00 | 0.00 | 21 | 1008.8 |
| 20260502000017 | 68 | 360 | 5.2 | 0.0 | 0.00 | 0.00 | 0.00 | 21 | 1008.8 |
| 20260501235518 | 68 | 360 | 5.2 | 0.0 | 0.00 | 0.00 | 0.00 | 21 | 1008.8 |
| 20260501235017 | 68 | 360 | 5.2 | 0.0 | 0.00 | 0.00 | 0.00 | 22 | 1008.9 |
| 20260501234517 | 68 | 360 | 5.2 | 0.0 | 0.00 | 0.00 | 0.00 | 22 | 1008.9 |
| 20260501234016 | 68 | 360 | 4.3 | 0.0 | 0.00 | 0.00 | 0.00 | 21 | 1008.9 |
| 20260501233515 | 68 | 360 | 5.2 | 0.0 | 0.00 | 0.00 | 0.00 | 20 | 1008.9 |
| 20260501233015 | 68 | 360 | 6.1 | 0.0 | 0.00 | 0.00 | 0.00 | 20 | 1009.0 |
| 20260501232519 | 68 | 360 | 6.1 | 0.0 | 0.00 | 0.00 | 0.00 | 21 | 1009.0 |
| 20260501232014 | 68 | 360 | 5.2 | 0.0 | 0.00 | 0.00 | 0.00 | 21 | 1009.0 |
| 20260501231514 | 68 | 360 | 6.1 | 0.0 | 0.00 | 0.00 | 0.00 | 21 | 1009.1 |
| 20260501231115 | 68 | 360 | 7.0 | 0.0 | 0.00 | 0.00 | 0.00 | 21 | 1009.1 |
| 20260501230516 | 68 | 204 | 6.1 | 0.0 | 0.00 | 0.00 | 0.00 | 21 | 1009.2 |
| 20260501230031 | 68 | 360 | 4.3 | 0.0 | 0.00 | 0.00 | 0.00 | 21 | 1009.2 |
| 20260501225515 | 68 | 360 | 4.3 | 0.0 | 0.00 | 0.00 | 0.00 | 21 | 1009.2 |
| 20260501225018 | 68 | 360 | 5.2 | 0.0 | 0.00 | 0.00 | 0.00 | 21 | 1009.2 |
| 20260501224512 | 68 | 360 | 6.1 | 0.0 | 0.00 | 0.00 | 0.00 | 21 | 1009.4 |
| 20260501224011 | 67 | 360 | 5.2 | 0.0 | 0.00 | 0.00 | 0.00 | 21 | 1009.4 |
| 20260501223511 | 68 | 360 | 4.3 | 0.0 | 0.00 | 0.00 | 0.00 | 20 | 1009.4 |
| 20260501223018 | 68 | 360 | 5.2 | 0.0 | 0.00 | 0.00 | 0.00 | 20 | 1009.6 |
| 20260501222510 | 68 | 360 | 5.2 | 0.0 | 0.00 | 0.00 | 0.00 | 20 | 1009.6 |
| 20260501222011 | 68 | 360 | 6.1 | 0.0 | 0.00 | 0.00 | 0.00 | 21 | 1009.6 |
| 20260501221509 | 67 | 360 | 6.1 | 0.0 | 0.00 | 0.00 | 0.00 | 23 | 1009.7 |
| 20260501221112 | 67 | 360 | 6.1 | 0.0 | 0.00 | 0.00 | 0.00 | 22 | 1009.8 |
| 20260501220509 | 67 | 360 | 6.1 | 0.0 | 0.00 | 0.00 | 0.00 | 21 | 1009.8 |
| 20260501220008 | 68 | 360 | 5.2 | 0.0 | 0.00 | 0.00 | 0.00 | 21 | 1009.8 |
| 20260501215507 | 67 | 210 | 5.2 | 0.0 | 0.00 | 0.00 | 0.00 | 22 | 1010.0 |
| 20260501215006 | 67 | 360 | 5.2 | 0.0 | 0.00 | 0.00 | 0.00 | 21 | 1010.0 |
| 20260501214506 | 67 | 360 | 4.3 | 0.0 | 0.00 | 0.00 | 0.00 | 22 | 1010.1 |
| 20260501214005 | 67 | 360 | 4.3 | 0.0 | 0.00 | 0.00 | 0.00 | 22 | 1010.2 |
| 20260501213504 | 67 | 360 | 5.2 | 0.0 | 0.00 | 0.00 | 0.00 | 23 | 1010.2 |
| 20260501213002 | 66 | 226 | 5.2 | 0.0 | 0.00 | 0.00 | 0.00 | 24 | 1010.3 |
| 20260501212502 | 66 | 360 | 5.2 | 0.0 | 0.00 | 0.00 | 0.00 | 23 | 1010.4 |
| 20260501212002 | 66 | 360 | 5.2 | 0.0 | 0.00 | 0.00 | 0.00 | 23 | 1010.5 |
| 20260501211501 | 66 | 360 | 4.3 | 0.0 | 0.00 | 0.00 | 0.00 | 22 | 1010.5 |
| 20260501211101 | 66 | 360 | 4.3 | 0.0 | 0.00 | 0.00 | 0.00 | 24 | 1010.5 |
| 20260501210501 | 66 | 360 | 4.3 | 0.0 | 0.00 | 0.00 | 0.00 | 23 | 1010.5 |
| 20260501205602 | 66 | 360 | 6.1 | 0.0 | 0.00 | 0.00 | 0.00 | 24 | 1010.7 |
| 20260501205102 | 66 | 360 | 7.0 | 0.0 | 0.00 | 0.00 | 0.00 | 25 | 1010.7 |
| 20260501204559 | 66 | 360 | 6.1 | 0.0 | 0.00 | 0.00 | 0.00 | 25 | 1010.7 |
| 20260501204058 | 65 | 360 | 5.2 | 0.0 | 0.00 | 0.00 | 0.00 | 24 | 1010.6 |
| 20260501203557 | 65 | 360 | 7.0 | 0.0 | 0.00 | 0.00 | 0.00 | 24 | 1010.7 |
| 20260501203056 | 65 | 360 | 6.1 | 0.0 | 0.00 | 0.00 | 0.00 | 25 | 1010.8 |
| 20260501202557 | 65 | 360 | 5.2 | 0.0 | 0.00 | 0.00 | 0.00 | 25 | 1010.8 |
| 20260501202059 | 65 | 360 | 4.3 | 0.0 | 0.00 | 0.00 | 0.00 | 25 | 1010.9 |
| 20260501201555 | 64 | 360 | 6.1 | 0.0 | 0.00 | 0.00 | 0.00 | 25 | 1011.0 |
| 20260501201053 | 65 | 222 | 7.0 | 0.0 | 0.00 | 0.00 | 0.00 | 25 | 1011.1 |
| 20260501200554 | 65 | 360 | 6.1 | 0.0 | 0.00 | 0.00 | 0.00 | 25 | 1011.1 |
| 20260501200053 | 65 | 360 | 5.2 | 0.0 | 0.00 | 0.00 | 0.00 | 25 | 1011.1 |
| 20260501195553 | 65 | 360 | 5.2 | 0.0 | 0.00 | 0.00 | 0.00 | 25 | 1011.2 |
| 20260501195052 | 64 | 360 | 6.1 | 0.0 | 0.00 | 0.00 | 0.00 | 25 | 1011.2 |
| 20260501194552 | 64 | 360 | 6.1 | 0.0 | 0.00 | 0.00 | 0.00 | 26 | 1011.3 |
| 20260501194051 | 64 | 360 | 7.0 | 0.0 | 0.00 | 0.00 | 0.00 | 25 | 1011.4 |
| 20260501193553 | 64 | 360 | 5.2 | 0.0 | 0.00 | 0.00 | 0.00 | 26 | 1011.3 |
| 20260501193051 | 64 | 360 | 5.2 | 0.0 | 0.00 | 0.00 | 0.00 | 27 | 1011.3 |
| 20260501192550 | 64 | 360 | 6.1 | 0.0 | 0.00 | 0.00 | 0.00 | 26 | 1011.3 |
| 20260501192051 | 64 | 360 | 6.1 | 0.0 | 0.00 | 0.00 | 0.00 | 26 | 1011.3 |
| 20260501191550 | 64 | 360 | 6.1 | 0.0 | 0.00 | 0.00 | 0.00 | 27 | 1011.3 |
| 20260501191050 | 64 | 360 | 5.2 | 0.0 | 0.00 | 0.00 | 0.00 | 26 | 1011.5 |
| 20260501190549 | 64 | 360 | 5.2 | 0.0 | 0.00 | 0.00 | 0.00 | 26 | 1011.5 |
| 20260501190048 | 64 | 360 | 5.2 | 0.0 | 0.00 | 0.00 | 0.00 | 26 | 1011.5 |
| 20260501185546 | 63 | 360 | 5.2 | 0.0 | 0.00 | 0.00 | 0.00 | 27 | 1011.7 |
| 20260501185045 | 62 | 360 | 6.1 | 0.0 | 0.00 | 0.00 | 0.00 | 27 | 1011.7 |
| 20260501184546 | 63 | 187 | 5.2 | 0.0 | 0.00 | 0.00 | 0.00 | 27 | 1011.7 |
| 20260501184045 | 62 | 360 | 4.3 | 0.0 | 0.00 | 0.00 | 0.00 | 28 | 1011.7 |
| 20260501183545 | 62 | 360 | 5.2 | 0.0 | 0.00 | 0.00 | 0.00 | 29 | 1011.8 |
| 20260501183044 | 62 | 360 | 6.1 | 0.0 | 0.00 | 0.00 | 0.00 | 27 | 1011.9 |
| 20260501182544 | 62 | 360 | 6.1 | 0.0 | 0.00 | 0.00 | 0.00 | 27 | 1011.9 |
| 20260501182043 | 62 | 360 | 5.2 | 0.0 | 0.00 | 0.00 | 0.00 | 28 | 1011.9 |
| 20260501181543 | 62 | 360 | 4.3 | 0.0 | 0.00 | 0.00 | 0.00 | 27 | 1011.9 |
| 20260501181042 | 62 | 360 | 4.3 | 0.0 | 0.00 | 0.00 | 0.00 | 27 | 1012.0 |